Regional Weather Roundup
Issued by NWS Northern Indiana

Home | Current Version | Previous Version | Text Only | Print | Product List | Glossary On
Versions: 1 2 3 4 5 6 7 8 9 10 11 12 13 14 15 16 17 18 19 20 21 22 23 24 25 26 27 28 29 30 31 32 33 34 35 36 37 38 39 40 41 42 43 44 45 46 47 48 49 50
000
ASUS43 KIWX 271910
RWRIWX

KIWX WEATHER ROUNDUP
NATIONAL WEATHER SERVICE NORTHERN INDIANA
300 PM EDT FRI MAY 27 2022

NOTE: "FAIR" INDICATES FEW OR NO CLOUDS BELOW 12,000 FEET WITH NO
SIGNIFICANT WEATHER AND/OR OBSTRUCTIONS TO VISIBILITY.

* THESE STATIONS ARE NOT UNDER NWS QUALITY CONTROL. THEY ALSO MAY NOT
  REPORT WEATHER SUCH AS PRECIPITATION OR FOG.

INZ001>027-272000-
NORTHERN INDIANA

CITY           SKY/WX    TMP DP  RH WIND       PRES   REMARKS
GARY*          LGT RAIN  52  50  93 N14       29.85R
VALPARAISO     LGT RAIN  50  48  93 MISG      29.81R
MICHIGAN CITY* LGT RAIN  50  48  93 N9        29.82R
LAPORTE*       RAIN      51  51 100 NW12      29.80R
KNOX*          CLOUDY    54  54 100 NW14      29.78S
SOUTH BEND     CLOUDY    55  53  93 W12       29.77S FOG
ELKHART*       LGT RAIN  63  59  88 W12       29.75S
GOSHEN         CLOUDY    67  59  75 W10G21    29.72S
MONTICELLO*    CLOUDY    62  60  96 NW14      29.76S
LOGANSPORT*    CLOUDY    64  37  36 W9        29.76F
ROCHESTER*     PTSUNNY   64  61  88 NW13      29.75S
PLYMOUTH*      CLOUDY    63  57  82 W14       29.76R
WARSAW*        CLOUDY    68  57  68 W16       29.73R
AUBURN*        PTSUNNY   72  55  56 CALM      29.72F
FORT WAYNE     PTSUNNY   69  58  67 SW10      29.73F
PERU/GRISSOM   PTSUNNY   68  59  72 W14       29.74F

$$
INZ028>050-272000-
CENTRAL INDIANA

CITY           SKY/WX    TMP DP  RH WIND       PRES   REMARKS
LAFAYETTE      RAIN      63  61  93 NW8       29.76R FOG
KOKOMO*        CLOUDY    64  63  94 W12       29.76S
MARION*        CLOUDY    64  61  88 W13       29.76S
MUNCIE*        PTSUNNY   69  58  67 W10       29.75F
INDIANAPOLIS   PTSUNNY   69  56  62 W12       29.76F

$$
MIZ043>046-050>051-056>058-064>065-071>073-077>080-272000-
SOUTHWEST LOWER MICHIGAN

CITY           SKY/WX    TMP DP  RH WIND       PRES   REMARKS
BATTLE CREEK   CLOUDY    68  61  78 N9        29.72S
BENTON HARBOR  CLOUDY    51  49  92 MISG      29.78R
COLDWATER*     PTSUNNY   73  60  61 SW7       29.71S
HILLSDALE*     CLOUDY    70  58  67 W5        29.71S
HOLLAND        CLOUDY    58  54  86 W7        29.76S
GRAND RAPIDS   PTSUNNY   65  60  84 N6        29.74S
KALAMAZOO      LGT RAIN  67  62  84 NW6       29.72F
STURGIS*       CLOUDY    70  61  73 W8        29.70F
THREE RIVERS*  HVY RAIN  65  61  88 CALM      29.73R

$$
OHZ001>008-015>018-024>025-272000-
NORTHWEST OHIO

CITY           SKY/WX    TMP DP  RH WIND       PRES   REMARKS
WAUSEON*       CLOUDY    75  59  57 S13       29.71S
DEFIANCE       CLOUDY    70  57  63 S9        29.72S
FINDLAY        CLOUDY    66  59  78 S8        29.73F
OTTAWA*        CLOUDY    68  55  64 S9        29.76S
TOLEDO EXPRESS CLOUDY    74  56  53 S6        29.70F
VAN WERT*      LGT RAIN  64  57  77 SW6       29.75S
LIMA           CLOUDY    66  56  70 S8        29.75S

$$
AND FOR LAKE MICHIGAN COASTAL AND OPEN LAKE BUOY OBSERVATIONS

STATION/POSITION TEMP    WIND        PRES    VSBY  WAVE
                 AIR SEA DIR/SP/G                  HT/PER
                 (F)     (DEG/KT/KT) (MB)    (MI)  (FT/S)
CALUMET HARBOR    53     330/ 15/ 22 1008.5R
MICHIGAN CITY     49     360/ 17/ 19   N/A
BURNS HARBOR      50     360/  7/  9 1010.8R
SAINT JOSEPH      50      10/ 15/ 18 1009.5
SOUTH LAKE BUOY   46 45  350/ 17/ 21 1010.1F         4/ 5
4 MI NW BRIDGMAN  50                 1009.5R         4/ 6
MICHIGAN CITY     50      10/ 14/ 17   N/A           4/ 6

$$
&&



USA.gov is the U.S. government's official web portal to all federal, state and local government web resources and services.